[[{"header":{"parameterUnit":"m.s-1","parameterCategory":1,"la1":30.2992,"la2":30.254,"lo1":-89.0895,"lo2":-89.0443,"dy":0.0025,"dx":0.0025,"nx":19,"ny":19,"refTime":"2026-03-28T09:00:00:Z","depth":0,"parameterNumber":2,"parameterNumberName":"U-component_of_WINDS"},"data":[0,0,0,-2.878,-2.8782,-2.8833,-2.8833,-2.8943,-2.8944,0,0,0,0,0,0,0,0,0,0,0,-2.879,-2.8792,-2.878,-2.8782,-2.8833,-2.8833,-2.8942,-2.8944,0,0,0,0,0,0,0,0,0,0,0,-2.8789,-2.8791,-2.8793,-2.8782,-2.8833,-2.8833,-2.8942,-2.8888,0,0,0,0,0,0,0,0,0,0,-2.8831,-2.8864,-2.8791,-2.8793,-2.8783,-2.8833,-2.8833,-2.8885,-2.8892,-2.8938,0,-2.8984,0,-2.8966,-2.8954,-2.8955,0,0,0,-2.8764,-2.8859,-2.885,-2.8794,-2.8784,-2.8833,-2.8805,-2.8888,-2.8896,-2.8947,-2.8985,-2.8988,-2.8967,-2.8955,-2.8956,-2.9276,-2.9279,0,0,-2.8761,-2.8814,-2.8845,-2.8856,-2.8849,-2.8804,-2.8807,-2.8892,-2.8938,-2.8985,-2.8989,-2.8969,-2.8956,-2.8957,-2.9274,-2.9277,0,0,0,-2.8765,-2.8813,-2.88,-2.8853,-2.8858,-2.8806,-2.8809,-2.8934,-2.8925,-2.899,-2.8971,-2.8957,-2.8959,-2.9272,-2.9275,-2.9443,0,0,0,-2.8763,-2.8814,-2.88,-2.8832,-2.8858,-2.8897,-2.885,-2.892,-2.8928,-2.897,-2.8957,-2.896,-2.9269,-2.9273,-2.9432,-2.9515,0,0,0,-2.8778,-2.8816,-2.8832,-2.8835,-2.8858,-2.8894,-2.889,-2.892,-2.8917,-2.8955,-2.896,-2.9267,-2.9273,-2.9423,-2.95,-2.9616,0,0,0,-2.8811,-2.898,-2.8835,-2.9017,-2.8858,-2.8995,-2.8888,-2.8988,-2.9041,-2.8958,-2.9269,-2.9275,-2.942,-2.949,-2.9607,-2.9726,-2.978,0,0,-2.9054,-2.9012,-2.9114,-2.8985,-2.9162,-2.8983,-2.9184,-2.9184,-2.9141,-2.9234,-2.9241,-2.9436,-2.9499,-2.9614,-3.0056,-3.0099,0,0,0,-2.9209,-2.9284,-2.9319,-2.937,-2.9372,-2.9381,-2.9343,-2.9343,-2.9419,-2.9198,-2.9506,-2.9541,-2.9607,-2.9662,-2.9699,-2.9753,-2.9301,-2.9301,-2.93,-2.9633,-2.9565,-2.9731,-2.967,-2.9721,-2.9679,-2.9715,-2.9707,-2.9626,-2.9699,-2.9729,-3.0004,-3.0071,-3.0098,-3.0155,-2.9783,-2.9783,-2.9784,-2.9784,-2.9986,-3.0083,-2.9967,-3.0087,-3.0016,-3.0116,-3.0082,-3.0021,-3.0105,-2.9977,-3.0032,-2.9902,-3.0147,-3.0194,-2.9796,-2.9794,-2.9793,-2.9791,-2.9791,-3.026,-3.0294,-3.0288,-3.0354,-3.0413,-3.0344,-3.043,-3.036,-3.0297,-3.035,-3.0375,-3.0372,-3.0363,-3.0366,-3.0367,-3.0368,-3.0368,-3.0369,-3.037,-3.0548,-3.0535,-3.0615,-3.0629,-3.0652,-3.0674,-3.0631,-3.0653,-3.0659,-3.0603,-3.0602,-3.0517,-3.0181,-3.0101,-3.0384,-3.0382,-3.038,-3.0378,-3.0377,-3.094,-3.0839,-3.0963,-3.0986,-3.0996,-3.106,-3.0968,-3.1017,-3.1025,-3.107,-3.097,-3.0732,-3.0685,-3.0655,-3.0589,-3.0981,-3.0981,-3.0981,-3.0981,-3.1174,-3.114,-3.1251,-3.1293,-3.1325,-3.1254,-3.1398,-3.1366,-3.1318,-3.1319,-3.125,-3.1154,-3.1127,-3.1096,-3.1057,-3.0994,-3.1481,-3.1482,-3.1482,-3.1412,-3.1378,-3.1515,-3.1463,-3.1465,-3.1469,-3.1603,-3.1657,-3.1581,-3.1501,-3.1319,-3.1298,-3.1141,-3.1093,-3.1016,-3.0957,-3.084,0,0]},{"header":{"parameterUnit":"m.s-1","parameterCategory":1,"la1":30.2992,"la2":30.254,"lo1":-89.0895,"lo2":-89.0443,"dy":0.0025,"dx":0.0025,"nx":19,"ny":19,"refTime":"2026-03-28T09:00:00:Z","depth":0,"parameterNumber":3,"parameterNumberName":"V-component_of_WINDS"},"data":[0,0,0,-4.2479,-4.248,-4.253,-4.253,-4.2606,-4.2607,0,0,0,0,0,0,0,0,0,0,0,-4.2473,-4.2474,-4.2479,-4.248,-4.253,-4.253,-4.2606,-4.2607,0,0,0,0,0,0,0,0,0,0,0,-4.2473,-4.2474,-4.2475,-4.2481,-4.253,-4.253,-4.2606,-4.2563,0,0,0,0,0,0,0,0,0,0,-4.2513,-4.2516,-4.2473,-4.2475,-4.2481,-4.253,-4.253,-4.2561,-4.2566,-4.2589,0,-4.2613,0,-4.2611,-4.2613,-4.2613,0,0,0,-4.2473,-4.2512,-4.2518,-4.2475,-4.2482,-4.253,-4.2506,-4.2564,-4.2569,-4.2595,-4.2614,-4.2616,-4.2613,-4.2613,-4.2614,-4.2771,-4.2772,0,0,-4.2471,-4.2486,-4.2514,-4.2522,-4.2517,-4.2504,-4.2507,-4.2567,-4.2588,-4.2614,-4.2618,-4.2614,-4.2614,-4.2615,-4.277,-4.2772,0,0,0,-4.2467,-4.2485,-4.2489,-4.2519,-4.2527,-4.2506,-4.251,-4.2585,-4.2585,-4.2619,-4.2615,-4.2614,-4.2615,-4.2769,-4.2771,-4.2838,0,0,0,-4.2465,-4.2483,-4.2488,-4.2498,-4.2527,-4.2557,-4.2527,-4.2581,-4.2587,-4.2614,-4.2614,-4.2616,-4.2768,-4.277,-4.2833,-4.2866,0,0,0,-4.2467,-4.2483,-4.2493,-4.2499,-4.2521,-4.2556,-4.2559,-4.2582,-4.2585,-4.2613,-4.2617,-4.2767,-4.277,-4.283,-4.286,-4.2911,0,0,0,-4.2472,-4.2553,-4.2495,-4.2583,-4.2521,-4.2598,-4.2558,-4.2615,-4.2647,-4.2615,-4.2768,-4.2771,-4.2828,-4.2856,-4.2907,-4.2955,-4.2978,0,0,-4.2583,-4.2567,-4.2618,-4.2567,-4.2659,-4.2589,-4.269,-4.2704,-4.2692,-4.2745,-4.2749,-4.2835,-4.2859,-4.291,-4.3101,-4.3119,0,0,0,-4.2658,-4.2694,-4.2715,-4.2747,-4.276,-4.2773,-4.2771,-4.2776,-4.282,-4.2723,-4.2868,-4.2882,-4.2911,-4.2933,-4.2948,-4.2971,-4.2782,-4.2782,-4.2782,-4.2836,-4.2816,-4.2898,-4.2884,-4.2915,-4.2911,-4.2934,-4.2939,-4.2911,-4.2945,-4.296,-4.3079,-4.3105,-4.3117,-4.3141,-4.2986,-4.2986,-4.2987,-4.2987,-4.2994,-4.3041,-4.3001,-4.3065,-4.3044,-4.3097,-4.3096,-4.3073,-4.3118,-4.3066,-4.309,-4.3033,-4.3137,-4.3157,-4.2992,-4.2991,-4.299,-4.299,-4.2989,-4.3107,-4.3126,-4.3131,-4.3174,-4.3209,-4.3192,-4.3237,-4.3215,-4.3196,-4.322,-4.3232,-4.3231,-4.3225,-4.3228,-4.3228,-4.3229,-4.3229,-4.3229,-4.323,-4.3221,-4.3225,-4.3266,-4.3286,-4.3302,-4.3322,-4.3318,-4.3333,-4.3344,-4.3325,-4.3325,-4.3291,-4.3152,-4.3116,-4.3236,-4.3235,-4.3234,-4.3233,-4.3233,-4.3385,-4.3344,-4.3408,-4.3424,-4.3445,-4.348,-4.3453,-4.3485,-4.3495,-4.3517,-4.3479,-4.338,-4.3361,-4.3349,-4.3319,-4.3484,-4.3484,-4.3484,-4.3484,-4.3478,-4.3467,-4.3526,-4.3554,-4.3579,-4.356,-4.363,-4.3627,-4.3618,-4.3622,-4.3596,-4.3555,-4.3543,-4.3531,-4.3515,-4.3487,-4.3691,-4.3691,-4.3691,-4.3577,-4.3567,-4.3631,-4.3622,-4.3636,-4.3649,-4.3713,-4.3745,-4.3726,-4.3699,-4.3624,-4.3615,-4.3549,-4.3529,-4.3499,-4.3474,-4.3421,0,0]}]]